Location: Berbisdorf
(50.7638°N, 12.9442°E)
Time: 02:06:10
(UTC+00:00)

BREEZE-M DEB (TANK) - Pass Details

Date: 07 October 2020
Orbit: 333 x 12040 km, 49.7° (Epoch: 19 October)

Event Time Altitude Azimuth Distance (km) Brightness Sun altitude
Rises 03:13:27 0° 202° (SSW) 14,797 9.0 -20.4°
Reaches altitude 10° 03:26:26 10° 201° (SSW) 14,900 9.0 -18.4°
Maximum altitude 05:00:28 68° 139° (SE) 8,777 8.4 -3.7°
Drops below altitude 10° 05:31:54 10° 67° (ENE) 6,749 8.7 1.2°
Sets 05:35:04 0° 65° (ENE) 7,040 8.7 1.7°
